sat.trackr.live / text

‹ back to catalog

KUIPER-00075

NORAD 64822 · 2025-151G

PAYLOAD ACTIVE UNKNOWN

§ Identity

Operator
Country
US
Launch date
2025-07-16
Launch site
AFETR
Launch vehicle
Mass (kg)
RCS (m²)

External: N2YO · Heavens-Above · Gunter

§ Orbital elements

Epoch: 2026-09-21T22:17:55.240512Z

Period
93.58 min
Inclination
51.8675°
Eccentricity
0.0002502
Mean motion
15.38854548 rev/d
Perigee alt
447.8 km
Apogee alt
451.2 km
Semi-major
6,827.6 km
B*
4.3472e-4
RAAN
345.0517°
Arg perigee
259.7667°
Mean anomaly
100.3038°
Rev number
6,669

§ Raw data

KUIPER-000751 64822U 25151G   26264.92911158  .00016614  00000+0  43472-3 0  99922 64822  51.8675 345.0517 0002502 259.7667 100.3038 15.38854548 66695

JSON: /api/v1/satellites/64822 · /tle

For live sub-satellite position, see the globe view (requires WebGL).

§ Visibility from observer

Set your observer location to see the next 7 days of passes ≥ 10°. The values pass through the URL so the page stays shareable.

No JS? Fill the form by hand. The geolocation button needs JavaScript.